[[{"header":{"parameterUnit":"m.s-1","parameterCategory":1,"la1":30.2991,"la2":30.254,"lo1":-89.0895,"lo2":-89.0444,"dy":0.0017,"dx":0.0017,"nx":28,"ny":28,"refTime":"2024-10-15T09:00:00:Z","depth":0,"parameterNumber":2,"parameterNumberName":"U-component_of_WINDS"},"data":[0,0,0,0,0,0,0,0,0,0,0,0,0,0,0,0,0,0,0,0,0,0,0,0,0,0,0,0,0,0,0,0,0,0,0,0,0,0,0,0,0,0,0,0,0,0,0,0,0,0,0,0,0,0,0,0,0,0,-0.1091,-0.109,0,-0.1059,-0.1058,-0.1058,-0.1025,-0.1025,-0.1025,-0.1024,-0.0991,-0.0991,-0.099,0,0,0,0,0,0,0,0,0,0,0,0,0,-0.1125,-0.1125,-0.1091,-0.109,-0.109,-0.1059,-0.1058,-0.1058,-0.1025,-0.1025,-0.1024,-0.1024,-0.0991,-0.0991,-0.099,0,0,0,0,0,0,0,0,0,0,0,0,0,-0.1103,-0.1124,-0.1091,-0.107,-0.1068,-0.1059,-0.1058,-0.1058,-0.1026,-0.1025,-0.1024,-0.1024,-0.0992,-0.0991,-0.099,-0.0999,0,0,-0.0988,-0.0988,0,0,0,0,0,0,0,0,-0.1105,-0.1102,-0.1073,-0.1071,-0.1069,-0.1045,-0.1058,-0.1038,-0.1026,-0.1042,-0.1024,-0.1023,-0.101,-0.1008,-0.1003,-0.0998,-0.0996,-0.0988,-0.0988,-0.0987,-0.0987,0,0,0,0,0,0,0,-0.1106,-0.1103,-0.1078,-0.1073,-0.107,-0.1063,-0.1059,-0.1054,-0.103,-0.104,-0.1038,-0.1034,-0.1008,-0.1004,-0.1002,-0.0996,-0.0988,-0.0987,-0.0987,-0.0987,-0.0997,-0.0998,0,0,0,0,0,0,-0.1111,-0.1105,-0.1079,-0.1077,-0.1085,-0.1063,-0.1058,-0.1054,-0.103,-0.1025,-0.1035,-0.1033,-0.1005,-0.1003,-0.1001,-0.101,-0.0987,-0.0987,-0.0986,-0.0997,-0.0998,-0.0998,0,0,0,0,0,0,-0.1112,-0.1109,-0.108,-0.109,-0.1086,-0.1063,-0.1058,-0.1053,-0.1048,-0.1026,-0.1021,-0.1035,-0.1005,-0.1002,-0.1,-0.1008,-0.0986,-0.0986,-0.0996,-0.0997,-0.0998,-0.1028,0,0,0,0,0,0,-0.1113,-0.1109,-0.1112,-0.109,-0.1086,-0.108,-0.1058,-0.1053,-0.1047,-0.1044,-0.1024,-0.102,-0.1004,-0.1001,-0.0999,-0.1007,-0.0985,-0.0995,-0.0996,-0.0998,-0.1026,-0.103,-0.1033,0,0,0,0,0,-0.1114,-0.1121,-0.1112,-0.1109,-0.1088,-0.108,-0.1077,-0.1058,-0.1048,-0.1051,-0.1037,-0.1021,-0.1008,-0.1001,-0.0999,-0.1006,-0.0994,-0.0996,-0.0998,-0.1024,-0.1029,-0.1033,0,0,0,0,0,0,-0.1143,-0.1118,-0.1107,-0.1108,-0.1097,-0.1075,-0.1077,-0.1064,-0.1055,-0.1052,-0.103,-0.1025,-0.1026,-0.1016,-0.1009,-0.1014,-0.0999,-0.1,-0.102,-0.1025,-0.1028,-0.103,-0.0985,0,0,0,0,0,-0.115,-0.1145,-0.1124,-0.1126,-0.1121,-0.1101,-0.1096,-0.1083,-0.107,-0.1065,-0.105,-0.1039,-0.1032,-0.1028,-0.1021,-0.1025,-0.1021,-0.1029,-0.1033,-0.1036,-0.1037,-0.1039,-0.1043,-0.1003,-0.1003,-0.1003,0,0,-0.1163,-0.1149,-0.1147,-0.1132,-0.1121,-0.1117,-0.1096,-0.1093,-0.109,-0.1064,-0.1062,-0.1051,-0.1037,-0.1039,-0.1039,-0.103,-0.1047,-0.1038,-0.1041,-0.104,-0.1041,-0.1045,-0.1048,-0.1005,-0.1004,-0.1004,0,0,-0.1185,-0.1174,-0.1175,-0.1166,-0.1151,-0.1137,-0.1138,-0.1119,-0.1111,-0.1108,-0.1089,-0.1086,-0.1075,-0.1065,-0.1059,-0.1081,-0.1066,-0.1079,-0.1097,-0.11,-0.1103,-0.1105,-0.1113,-0.1116,-0.1081,-0.1081,-0.1081,0,-0.1203,-0.1196,-0.1177,-0.1175,-0.1169,-0.1147,-0.1149,-0.1141,-0.1124,-0.1121,-0.1112,-0.1099,-0.1087,-0.1087,-0.1092,-0.1088,-0.1088,-0.108,-0.1104,-0.1106,-0.1108,-0.1115,-0.1118,-0.1082,-0.1082,-0.1082,-0.1082,0,-0.122,-0.1215,-0.1218,-0.1203,-0.1198,-0.1198,-0.1179,-0.1176,-0.1165,-0.1152,-0.1151,-0.1137,-0.1127,-0.1126,-0.1114,-0.1125,-0.112,-0.1108,-0.1092,-0.1114,-0.112,-0.1123,-0.1085,-0.1084,-0.1084,-0.1083,0,0,-0.1257,-0.1233,-0.1234,-0.1228,-0.1211,-0.1207,-0.1207,-0.1197,-0.1195,-0.1185,-0.1184,-0.1177,-0.1166,-0.1159,-0.1147,-0.1149,-0.1167,-0.1137,-0.1136,-0.1142,-0.1178,-0.1186,-0.119,-0.1158,-0.1159,-0.1159,-0.1179,0,-0.1275,-0.1272,-0.1256,-0.1258,-0.1254,-0.1235,-0.1235,-0.1225,-0.1214,-0.121,-0.1198,-0.1193,-0.118,-0.1175,-0.1177,-0.1165,-0.1174,-0.1163,-0.1157,-0.1157,-0.116,-0.1193,-0.1201,-0.122,-0.1181,-0.1182,-0.1182,0,-0.1295,-0.1287,-0.1289,-0.1273,-0.1271,-0.1271,-0.1262,-0.1258,-0.1247,-0.1239,-0.1233,-0.1219,-0.1218,-0.1205,-0.1203,-0.1196,-0.1194,-0.1187,-0.1188,-0.1185,-0.117,-0.119,-0.1226,-0.1228,-0.1186,-0.1185,-0.1185,0,-0.1321,-0.1311,-0.1311,-0.1306,-0.1288,-0.1289,-0.1281,-0.1269,-0.1265,-0.1258,-0.1255,-0.1248,-0.1243,-0.1238,-0.1223,-0.1215,-0.1224,-0.1209,-0.1217,-0.1218,-0.1218,-0.1218,-0.1253,-0.1219,-0.1219,-0.1219,-0.1219,0,-0.1343,-0.1344,-0.1323,-0.1322,-0.1324,-0.1307,-0.131,-0.13,-0.1291,-0.1289,-0.1272,-0.1271,-0.1251,-0.1248,-0.1237,-0.1237,-0.1236,-0.123,-0.1226,-0.123,-0.1231,-0.1227,-0.1225,-0.1219,-0.1219,-0.1219,-0.1219,0,-0.1371,-0.1357,-0.1355,-0.1339,-0.1335,-0.1337,-0.1323,-0.1323,-0.1313,-0.1311,-0.1309,-0.1293,-0.1288,-0.1273,-0.1265,-0.1257,-0.1261,-0.1256,-0.1265,-0.1263,-0.1272,-0.1271,-0.1304,-0.1307,-0.1272,-0.1272,-0.1273,0,-0.1385,-0.1386,-0.137,-0.1368,-0.1361,-0.1358,-0.1354,-0.1338,-0.1334,-0.1323,-0.1324,-0.1319,-0.1313,-0.1307,-0.1294,-0.1288,-0.1282,-0.1294,-0.1281,-0.1285,-0.1281,-0.1281,-0.1281,-0.1296,-0.1297,-0.1297,-0.1297,0,-0.1411,-0.1404,-0.1399,-0.1392,-0.1388,-0.1382,-0.1374,-0.1374,-0.1356,-0.1353,-0.1349,-0.1345,-0.1337,-0.1332,-0.1324,-0.1317,-0.1304,-0.1302,-0.1304,-0.1307,-0.1312,-0.1309,-0.1272,-0.1301,-0.1301,-0.13,-0.13,-0.13,-0.1432,-0.1432,-0.1421,-0.1417,-0.141,-0.1404,-0.1403,-0.1393,-0.1389,-0.1381,-0.1373,-0.1369,-0.136,-0.1348,-0.1343,-0.134,-0.1333,-0.1335,-0.1336,-0.1336,-0.1338,-0.1314,-0.1339,-0.1339,-0.1339,-0.1339,-0.1338,0,-0.1456,-0.1449,-0.1445,-0.1436,-0.1432,-0.1422,-0.1414,-0.1412,-0.1409,-0.1402,-0.1397,-0.1393,-0.1388,-0.1376,-0.137,-0.1371,-0.1365,-0.137,-0.1369,-0.1368,-0.1345,-0.1344,-0.1375,-0.1375,-0.1375,-0.1375,-0.1375,-0.1375,-0.1468,-0.1468,-0.1461,-0.1458,-0.1451,-0.1447,-0.1444,-0.1439,-0.1433,-0.1428,-0.1425,-0.1417,-0.1408,-0.1402,-0.1398,-0.1394,-0.1393,-0.1399,-0.1394,-0.1373,-0.1369,-0.1366,-0.1364,-0.1399,-0.1399,-0.1417,-0.1417,-0.1417]},{"header":{"parameterUnit":"m.s-1","parameterCategory":1,"la1":30.2991,"la2":30.254,"lo1":-89.0895,"lo2":-89.0444,"dy":0.0017,"dx":0.0017,"nx":28,"ny":28,"refTime":"2024-10-15T09:00:00:Z","depth":0,"parameterNumber":3,"parameterNumberName":"V-component_of_WINDS"},"data":[0,0,0,0,0,0,0,0,0,0,0,0,0,0,0,0,0,0,0,0,0,0,0,0,0,0,0,0,0,0,0,0,0,0,0,0,0,0,0,0,0,0,0,0,0,0,0,0,0,0,0,0,0,0,0,0,0,0,0.7248,0.7249,0,0.7266,0.7266,0.7266,0.7305,0.7305,0.7306,0.7307,0.7323,0.7323,0.7322,0,0,0,0,0,0,0,0,0,0,0,0,0,0.7246,0.7246,0.7248,0.7249,0.7249,0.7266,0.7266,0.7266,0.7304,0.7305,0.7306,0.7307,0.7323,0.7323,0.7322,0,0,0,0,0,0,0,0,0,0,0,0,0,0.7254,0.7246,0.7248,0.727,0.7272,0.7266,0.7266,0.7267,0.7304,0.7305,0.7307,0.7308,0.7323,0.7323,0.7322,0.7296,0,0,0.7321,0.7321,0,0,0,0,0,0,0,0,0.7253,0.7254,0.7267,0.7268,0.7271,0.7284,0.7271,0.7276,0.7304,0.7292,0.7307,0.7308,0.7309,0.731,0.731,0.7297,0.7297,0.7321,0.7321,0.732,0.732,0,0,0,0,0,0,0,0.7253,0.7253,0.7255,0.7267,0.7269,0.7278,0.7281,0.7272,0.7294,0.7293,0.7296,0.7298,0.731,0.7311,0.7311,0.7298,0.7321,0.732,0.732,0.732,0.7263,0.7262,0,0,0,0,0,0,0.7249,0.7252,0.7255,0.7256,0.7265,0.7277,0.728,0.7279,0.7294,0.7297,0.7297,0.7299,0.7311,0.7312,0.7312,0.7282,0.732,0.732,0.732,0.7264,0.7263,0.7261,0,0,0,0,0,0,0.7249,0.7249,0.7254,0.7255,0.7256,0.7276,0.7274,0.7278,0.7279,0.7296,0.73,0.7293,0.7312,0.7312,0.73,0.7283,0.732,0.7319,0.7266,0.7264,0.7262,0.7222,0,0,0,0,0,0,0.7249,0.7249,0.7239,0.7254,0.7256,0.7242,0.7273,0.7278,0.7278,0.7282,0.7294,0.7297,0.7313,0.73,0.7299,0.7283,0.7319,0.7267,0.7265,0.7263,0.7225,0.7219,0.7214,0,0,0,0,0,0.7249,0.7227,0.7239,0.7239,0.7245,0.7241,0.7242,0.7261,0.7277,0.7267,0.7279,0.7297,0.7285,0.7299,0.7298,0.7281,0.7268,0.7266,0.7263,0.7227,0.722,0.7214,0,0,0,0,0,0,0.7209,0.7229,0.7243,0.7225,0.7231,0.7248,0.7236,0.7252,0.7253,0.7257,0.7279,0.7282,0.7266,0.7272,0.7287,0.7256,0.728,0.7277,0.7253,0.7246,0.7241,0.7239,0.7319,0,0,0,0,0,0.7198,0.7194,0.7212,0.7195,0.7197,0.7216,0.7215,0.7229,0.7236,0.7238,0.7249,0.7254,0.7251,0.7249,0.7248,0.7226,0.7229,0.7214,0.7209,0.7204,0.7201,0.7189,0.7183,0.7252,0.7252,0.7252,0,0,0.7176,0.7186,0.7182,0.7187,0.7193,0.7188,0.7218,0.7211,0.7207,0.7237,0.7226,0.7233,0.7241,0.7223,0.7216,0.7228,0.7182,0.72,0.7197,0.7196,0.7186,0.7179,0.7173,0.725,0.7251,0.7251,0,0,0.7132,0.714,0.7127,0.7132,0.7142,0.7154,0.7151,0.7165,0.7171,0.7161,0.7183,0.7178,0.7174,0.7178,0.7179,0.7137,0.7154,0.7136,0.7107,0.7096,0.709,0.7086,0.707,0.7065,0.7133,0.7133,0.7133,0,0.7103,0.7096,0.7117,0.7109,0.711,0.7138,0.7125,0.7129,0.7137,0.7137,0.715,0.7145,0.7152,0.7136,0.7125,0.7126,0.7122,0.7135,0.709,0.7085,0.7081,0.7066,0.7061,0.7131,0.7131,0.7131,0.7132,0,0.7059,0.7054,0.7042,0.705,0.705,0.7039,0.7058,0.7055,0.7069,0.708,0.7069,0.7078,0.7079,0.7076,0.709,0.7062,0.7069,0.7086,0.7109,0.7072,0.7058,0.7053,0.7128,0.7129,0.7129,0.713,0,0,0.6991,0.7011,0.7006,0.701,0.7022,0.7018,0.7008,0.701,0.7007,0.7011,0.7003,0.6998,0.7014,0.7016,0.703,0.702,0.6985,0.7038,0.7039,0.7027,0.6955,0.6942,0.6935,0.6997,0.6996,0.6995,0.6954,0,0.695,0.6934,0.6953,0.6933,0.6929,0.6955,0.6947,0.6953,0.6963,0.696,0.6971,0.6967,0.6988,0.6989,0.6981,0.6991,0.6971,0.6995,0.6989,0.6988,0.6986,0.6928,0.6914,0.6875,0.6949,0.6948,0.6947,0,0.6899,0.6902,0.6882,0.6896,0.6895,0.6886,0.6889,0.6886,0.6894,0.6902,0.6904,0.6921,0.6911,0.6935,0.6922,0.6937,0.6936,0.6941,0.694,0.6939,0.6965,0.6926,0.6863,0.6856,0.694,0.694,0.6941,0,0.6851,0.6849,0.6837,0.684,0.6855,0.6849,0.6855,0.6864,0.6864,0.6866,0.6866,0.6867,0.6867,0.6867,0.6883,0.6899,0.6868,0.6893,0.6874,0.6873,0.6865,0.6866,0.6801,0.6865,0.6865,0.6866,0.6866,0,0.6802,0.6789,0.6816,0.6808,0.6794,0.6815,0.68,0.6809,0.6816,0.6811,0.6833,0.6827,0.685,0.6846,0.6859,0.6846,0.6846,0.6851,0.6855,0.6849,0.6848,0.6848,0.6851,0.6864,0.6864,0.6865,0.6865,0,0.6745,0.6763,0.6751,0.6767,0.6771,0.6759,0.6773,0.6766,0.6778,0.677,0.6769,0.6787,0.6784,0.6801,0.68,0.6809,0.6789,0.6797,0.6786,0.6789,0.6768,0.677,0.6701,0.6692,0.6763,0.6762,0.6761,0,0.6713,0.6703,0.6719,0.6717,0.6722,0.6718,0.6718,0.6739,0.6738,0.6746,0.6738,0.6737,0.6736,0.6729,0.6742,0.6742,0.675,0.6726,0.675,0.6744,0.6749,0.6749,0.6748,0.672,0.6719,0.6719,0.6718,0,0.6654,0.6663,0.6663,0.6665,0.6664,0.6667,0.6671,0.6668,0.6691,0.6688,0.6685,0.6685,0.6685,0.6683,0.6685,0.669,0.6707,0.6711,0.6706,0.67,0.6693,0.6696,0.6772,0.6712,0.6712,0.6713,0.6713,0.6713,0.6608,0.66,0.661,0.6608,0.6614,0.6617,0.6612,0.6623,0.6621,0.6623,0.6635,0.663,0.6637,0.6642,0.6646,0.6642,0.6653,0.6647,0.6645,0.6643,0.6639,0.6695,0.6642,0.6642,0.6643,0.6643,0.6643,0,0.6549,0.6557,0.6555,0.6561,0.6559,0.6577,0.6582,0.658,0.6575,0.6581,0.658,0.6577,0.6575,0.6588,0.6587,0.6581,0.6589,0.658,0.6581,0.6582,0.6629,0.6633,0.6574,0.6574,0.6574,0.6574,0.6574,0.6574,0.6519,0.6507,0.6517,0.6508,0.6516,0.6511,0.6513,0.6516,0.6521,0.6516,0.6515,0.6523,0.6532,0.6532,0.6531,0.6535,0.6533,0.6522,0.6528,0.6572,0.6578,0.6585,0.6588,0.6521,0.6521,0.6481,0.6481,0.648]}]]